Regional Weather Roundup
Issued by NWS Wakefield, VA

Home | Current Version | Previous Version | Text Only | Print | Product List | Glossary Off
Versions: 1 2 3 4 5 6 7 8 9 10 11 12 13 14 15 16 17 18 19 20 21 22 23 24 25 26 27 28 29 30 31 32 33 34 35 36 37 38 39 40 41 42 43 44 45 46 47 48 49 50

478
ASUS41 KAKQ 242316
RWRAKQ

REGIONAL WEATHER ROUNDUP
NATIONAL WEATHER SERVICE WAKEFIELD VA
700 PM EDT FRI MAR 24 2017

Note: "fair" indicates few or no clouds below 12,000 feet with no
significant weather and/or obstructions to visibility. * = Denotes
station may not report precipitation (e.g., rain,snow,etc.),
thunder or fog.

VAZ042-051-052>054-056-250000-
NORTHERN VIRGINIA

CITY           SKY/WX    TMP DP  RH WIND       PRES   REMARKS
WASH NATIONAL  CLOUDY    61  39  44 S10       30.18F
DULLES         CLOUDY    60  37  42 S12G22    30.16F
FORT BELVOIR   PTCLDY    63  38  40 VRB3      30.18F
QUANTICO       PTCLDY    57  45  64 SW12      30.20F
FREDERICKSBRG* PTCLDY    67  46  47 SW12G17   30.19F
STAFFORD*      CLOUDY    65  44  46 S8        30.23F
WARRENTON      PTCLDY    64  37  35 S6        30.18F
CULPEPER*      CLOUDY    66  45  45 S8        30.19F
MANASSAS*      CLOUDY    62  40  44 S7        30.18F
LEESBURG*      CLOUDY    63  43  48 SW10      30.16F
WINCHESTER     CLOUDY    61  39  44 S8        30.13F
FRONT ROYAL*     N/A    N/A N/A N/A MISG        N/A
LURAY*         CLOUDY    68  43  40 SW8       30.16S
$$

VAZ048-049-060>072-079>083-250000-
CENTRAL AND SOUTH CENTRAL VIRGINIA

CITY           SKY/WX    TMP DP  RH WIND       PRES   REMARKS
RICHMOND       CLOUDY    67  47  48 SW15G23   30.24F
CHESTERFIELD*  FAIR     N/A N/A N/A SW10      30.26F
PETERSBURG*    CLEAR     66  45  46 S5        30.27S
HANOVER        CLOUDY    68  45  43 S15G26    30.25F
TAPPAHANNOCK*  CLOUDY    67  30  24 S7G18     30.23F
QUINTON*       FAIR      67  47  48 S9G17     30.24F
CHARLOTTSVILLE CLEAR     68  44  42 S14       30.21S
GORDONSVILLE*  CLEAR     66  46  48 SW13G22   30.20S
ORANGE*        CLEAR     64  45  48 S12G17    30.22S
LOUISA*        CLOUDY    70  50  49 SW8G20    30.21S
BUMPASS*       FAIR      67  46  47 SW6G20    30.22S
FARMVILLE*     CLEAR     68  47  47 SW9G18    30.25S
CREWE*         FAIR      66  47  50 SW8G20    30.27S
FORT PICKETT*  FAIR      66  39  37 SW13G21   30.27F
CHASE CITY*    FAIR      67  44  44 SW7       30.29S
CLARKSVILLE*   FAIR      66  46  48 SW7       30.29S
SOUTH HILL*    CLEAR     66  48  52 SW12G17   30.35F
LAWRENCEVILLE* FAIR      66  46  47 S8        30.28F
EMPORIA*       CLEAR     66  45  45 S9G16     30.31F
$$

VAZ088>098-250000-
SOUTHEAST VIRGINIA

CITY           SKY/WX    TMP DP  RH WIND       PRES   REMARKS
NORFOLK        CLEAR     67  44  43 SW16G26   30.28F
VIRGINIA BEACH MOCLDY    66  43  43 SW12      30.29S
NORFOLK NAVAL  PTCLDY    67  44  43 SW16G23   30.29F
WEST POINT*    CLEAR     66  44  45 SW9       30.26F
SALUDA*        FAIR      67  47  48 SW9G20    30.24S
NEWPORT NEWS   CLEAR     65  46  50 SW13      30.27F
LANGLEY AFB    CLEAR     66  47  49 S16       30.27F
FORT EUSTIS    CLEAR     65  47  50 S10       30.24F
WILLIAMSBURG*  CLEAR     68  48  49 SW5       30.27F
HR EXEC AP*    FAIR      66  45  45 SW9       30.28S
FRANKLIN*      CLEAR     67  45  45 SW10G17   30.30F
US460-WAKEFLD  CLEAR     67  47  48 SW13      30.28F
$$

VAZ020-022-025-037-045-250000-
WEST CENTRAL AND SOUTHWEST VIRGINIA

CITY           SKY/WX    TMP DP  RH WIND       PRES   REMARKS
STAUNTON*      CLEAR     65  41  41 S7        30.21S
WAYNESBORO*    CLEAR     64  43  46 S8G16     30.21S
HOT SPRINGS VA MOCLDY    57  34  41 S8        30.28S
LYNCHBURG      CLEAR     64  45  49 S12       30.27S
DANVILLE       CLEAR     66  46  48 SW13G22   30.29F
SOUTH BOSTON*  FAIR      67  44  43 SW10      30.29S
MARTINSVILLE   CLEAR     65  44  46 S7        30.32S
ROANOKE        PTCLDY    68  45  43 S12       30.26S
BLACKSBURG     CLEAR     65  46  48 S8G17     30.30R
DUBLIN*        CLEAR     66  45  46 S13       30.28R
MARION*        CLEAR     68  46  44 S8        30.29S
HILLSVILLE*    CLEAR     61  46  58 S9        30.29S
RICHLANDS*     FAIR      65  47  51 CALM      30.26S
WISE*          PTCLDY    64  45  48 SW7       30.28S
ABINGDON*      CLOUDY    71  46  41 W7        30.25F
$$

MDZ021>025-VAZ099-100-250000-
SOUTHERN MARYLAND AND THE DELMARVA PENINSULA

CITY           SKY/WX    TMP DP  RH WIND       PRES   REMARKS
PATUXENT RIVER CLOUDY    64  45  49 SW9       30.20F
BAY BRIDGE APT CLOUDY    57  37  47 S9        30.17F
LEONARDTOWN    CLOUDY    63  39  42 SW9       30.21F
DOVER          PTCLDY    57  38  49 S14       30.16F
GEORGETOWN     PTCLDY    60  36  40 SW13      30.21F
EASTON         MOCLDY    59  36  41 S9        30.22F
CAMBRIDGE      CLEAR     55  41  58 VRB7G13   30.20F
SALISBURY      CLOUDY    59  40  49 S13       30.22F
OCEAN CITY     PTCLDY    50  42  74 SW15G25   30.24F
WALLOPS ISLAND CLEAR     49  44  83 S14       30.25F
ACCOMACK*      CLEAR     56  45  66 S9        30.25F
$$

NCZ012>017-030>032-250000-
NORTH CENTRAL AND EASTERN NORTH CAROLINA

CITY           SKY/WX    TMP DP  RH WIND       PRES   REMARKS
ROANOKE RAPIDS FAIR      64  46  52 SW10      30.31F
RALEIGH        PTCLDY    67  46  47 SW15      30.33F
ELIZABETH CITY CLEAR     65  45  48 S9        30.33F
AHOSKIE*         N/A     64  46  51 SW5       30.33S
EDENTON*       CLEAR     68  45  44 SW10      30.34F
CURRITUCK*     CLEAR     67  44  42 S5        30.33S
KILL DEVIL HLS NOT AVBL
MANTEO         CLEAR     59  48  66 SW17      30.36F
CAPE HATTERAS  CLEAR     61  51  70 SW8       30.40F
TARBORO*       NOT AVBL
GOLDSBORO      CLEAR     70  42  36 SW9       30.33F
WASHINGTON     CLEAR     67  47  49 S8G17     30.35S
GREENVILLE     CLEAR     70  43  37 SW9       30.34F
NEW BERN       CLEAR     64  49  57 S12G22    30.39S
WILMINGTON     CLEAR     65  52  62 S7        30.39F
$$

VAZ048-250000-
ELSEWHERE

CITY           SKY/WX    TMP DP  RH WIND       PRES   REMARKS
HARRISBURG PA  CLOUDY    57  40  52 SW12G17   30.12S
BALTIMORE      CLOUDY    60  37  42 SW14G21   30.15F
ANNAPOLIS      CLOUDY    63  38  39 SW9G18    30.17F
ANDREWS AFB    CLOUDY    61  38  42 SW13      30.16F
PHILADELPHIA   CLOUDY    56  32  40 SW13      30.17S
HENDERSON NC   CLEAR     64  44  48 S13       30.30S
GREENSBORO     PTCLDY    66  47  50 SW15      30.31F
ROCKY MOUNT    CLEAR     67  47  48 SW10      30.34S
$$

VAZ100-250000-
MARINE

STATION/POSITION TIME  TEMP    WIND        PRES    WAVE   SWELL
                       AIR SEA DIR/SP/G            HT/PER HT/PER
                 (UTC) (F)     (DEG/KT/KT) (MB)    (FT/S) (FT/S)
CAPE MAY NJ      2248   50 44  170/ 14/ 17 1022.3F
LEWES DE         2248   56 43  190/  7/ 11 1022.5F
OCEAN-CITY-INLET 2248   46 43  220/ 17/ 20 1024.4F
WACHAPREAGUE VA  2248   53 50  220/ 10/ 12 1024.3F
THOMAS POINT MD  2300   49 44  180/ 14/ 14   N/A
GOOSES REEF MD   2300   47 44  170/  8/ 10 1022.7    1/ 3
COVE POINT MD    2248          220/ 13/ 18 1023.0F
SOLOMONS ISLAND  2248   62 45  220/ 11/ 16   N/A
BISHOPS HEAD MD  2248   53 49  180/ 13/ 16 1023.3F
PINEY POINT MD   2248          220/  8/  8   N/A
POTOMAC MD       2300   56 46  240/  8/ 10 1022.3    1/ 3
CAMBRIDGE MD     2248   58 44  170/  5/  7 1021.9F
LEWISETTA VA     2248   66 48  240/ 12/ 18 1022.8F
RAPPAHANNOCK LGT 2248          190/ 18/ 19 1024.7F
STINGRAY PT      2250   58     220/ 10/ 12 1024.9F
YORK RVR RNG VA  2248   61     220/ 19/ 20 1023.8F
YORKTOWN VA      2248   67 47  210/ 12/ 18 1024.2F
JAMESTOWN VA     2300   66 51  210/ 12/ 17   N/A
DOMINION TERM VA 2248   61     230/ 12/ 15 1025.5F
KIPTOPEKE VA     2248      47  200/  5/  6   N/A
CHES BAY BRIDGE  2248   64 47  230/ 19/ 21 1025.1F
CAPE HENRY VA    2248   67     210/ 10/ 17   N/A
WILLOUBY STN VA  2248   63     220/ 17/ 19 1026.1F
S CRANEY ISL VA  2248   67     220/ 13/ 17 1025.4F
CAPE HENRY BUOY  2242      47                N/A     3/ 9
CAPE CHARLES BUO 2251      47                N/A     2/10
OFFSHORE WE BUOY 2251      46                N/A     3/10
64NM E OF VA BCH 2250   54 51  190/ 16/ 19 1027.2F   3/10   2/10
DUCK PIER NC     2248   63 48  200/ 17/ 21 1026.7F
44100 DUCK FRF   2235      50                N/A     3/11   2/11
44056 DUCK FRF   2230      50                N/A     2/ 8
OREGON INLET NC  2248          180/ 14/ 17   N/A
HATTERAS NC      2248   60 54  210/  6/  8 1029.3F
DIAMOND SHLS NC  2250   65 74  210/ 16/ 19 1029.8F   4/ 8   3/ 8
CAPE LOOKOUT NC  2300   65     190/ 12/ 15 1029.2F
$$




USA.gov is the U.S. government's official web portal to all federal, state and local government web resources and services.